Tracking 20712 objects as of 29-May-2020
HD Live streaming from Space Station
objects crossing your sky now

FENGYUN 1C DEB

Track FENGYUN 1C DEB now!
10-day predictions


NORAD ID: 32156
Int'l Code: 1999-025CTA
Perigee: 743.6 km
Apogee: 870.9 km
Inclination: 99.4 °
Period: 100.9 minutes
Semi major axis: 7178 km
RCS: 0.0148 m2 (small)
Launch date: May 10, 1999
Source: People's Republic of China (PRC)
Launch site: Taiyaun Space Center, China (TSC)

Note: This is SATELLITE DEBRIS
aabbcc
Your satellite tracking list
Your tracking list is empty




NASA's NSSDC Master Catalog

Two Line Element Set (TLE):
1 32156U 99025CTA 20150.25581263  .00000081  00000-0  50800-4 0  9998
2 32156  99.3702 155.4936 0088621 103.9662 257.1391 14.27500426670646
Source of the keplerian elements: AFSPC